Weather History for New York JFK, NY

Change the Weather History Date:

Thursday, November 21, 2013

  Actual Average Record
Temperature  
Mean Temperature 42 °F 46 °F  
Max Temperature 52 °F 52 °F 66 °F (1991)
Min Temperature 31 °F 39 °F 19 °F (1987)
Degree Days  
Heating Degree Days 23 19  
Month to date heating degree days 351 338  
Since 1 July heating degree days 582 637  
Cooling Degree Days 0 0  
Month to date cooling degree days 0 0  
Year to date cooling degree days 1111 1005  
Moisture  
Dew Point 32 °F    
Average Humidity 58    
Maximum Humidity 71    
Minimum Humidity 45    
Precipitation  
Precipitation 0.00 in 0.11 in 0.69 in (1975)
Month to date precipitation 0.50 2.24  
Year to date precipitation 28.94 38.32  
Snow  
Snow 0.00 in 0.00 in - ()
Month to date snowfall 0.2 0.0  
Since 1 July snowfall 0.2 0.0  
Snow Depth 0.00 in    
Sea Level Pressure  
Sea Level Pressure 30.54 in    
Wind  
Wind Speed 7 mph (ESE)    
Max Wind Speed 13 mph    
Max Gust Speed 17 mph    
Visibility 10 miles    
Events      
T = Trace of Precipitation, MM = Missing Value Source: NWS Daily Summary

Daily Weather History Graph

Daily Weather History Graph

Search for Another Location

Airport:

Trip Planner

Search our weather history database for the weather conditions in past years. The results will help you decide how hot, cold, wet, or windy it might be!

Date:

Astronomy

Nov. 21, 2013 Rise Set
Actual Time 6:48 AM EST 4:32 PM EST
Civil Twilight 6:19 AM EST 5:02 PM EST
Nautical Twilight 5:45 AM EST 5:35 PM EST
Astronomical Twilight 5:13 AM EST 6:08 PM EST
Moon 8:07 PM EST 9:53 AM EST
Length of Visible Light 10h 43m
Length of Day
9h 43m
Waning Gibbous, 85% of the Moon is Illuminated
Nov 21
Waning Gibbous
Nov 25
Last Quarter
Dec 2
New
Dec 9
First Quarter
Dec 17
Full

Hourly Weather History & Observations

Time (EST) Temp. Windchill Dew Point Humidity Pressure Visibility Wind Dir Wind Speed Gust Speed Precip Events Conditions
12:51 AM 33.1 °F 30.0 °F 21.0 °F 61% 30.63 in 10.0 mi NE 3.5 mph - N/A   Mostly Cloudy
1:51 AM 33.1 °F 28.7 °F 19.9 °F 59% 30.62 in 10.0 mi NNE 4.6 mph - N/A   Mostly Cloudy
2:51 AM 34.0 °F 29.8 °F 21.0 °F 59% 30.62 in 10.0 mi NNE 4.6 mph - N/A   Mostly Cloudy
3:51 AM 32.0 °F 27.5 °F 21.0 °F 64% 30.62 in 10.0 mi NE 4.6 mph - N/A   Mostly Cloudy
4:51 AM 33.1 °F 28.7 °F 23.0 °F 66% 30.62 in 10.0 mi Variable 4.6 mph - N/A   Scattered Clouds
5:51 AM 33.1 °F 26.9 °F 24.1 °F 70% 30.61 in 10.0 mi NNE 6.9 mph - N/A   Mostly Cloudy
6:51 AM 37.0 °F 30.4 °F 25.0 °F 62% 30.62 in 10.0 mi NE 9.2 mph - N/A   Mostly Cloudy
7:51 AM 37.0 °F 29.8 °F 27.0 °F 67% 30.61 in 10.0 mi NE 10.4 mph - N/A   Scattered Clouds
8:51 AM 43.0 °F 37.2 °F 25.0 °F 49% 30.61 in 10.0 mi ENE 10.4 mph - N/A   Scattered Clouds
9:51 AM 46.9 °F - 26.1 °F 44% 30.61 in 10.0 mi ENE 8.1 mph - N/A   Scattered Clouds
10:51 AM 48.0 °F - 28.0 °F 46% 30.60 in 10.0 mi ESE 3.5 mph - N/A   Mostly Cloudy
11:51 AM 50.0 °F - 33.1 °F 52% 30.57 in 10.0 mi ESE 9.2 mph - N/A   Mostly Cloudy
12:51 PM 51.1 °F - 34.0 °F 52% 30.53 in 10.0 mi ESE 10.4 mph - N/A   Mostly Cloudy
1:51 PM 52.0 °F - 34.0 °F 50% 30.51 in 10.0 mi SE 9.2 mph - N/A   Mostly Cloudy
2:51 PM 50.0 °F - 35.1 °F 57% 30.50 in 10.0 mi SE 10.4 mph - N/A   Mostly Cloudy
3:51 PM 50.0 °F - 36.0 °F 59% 30.49 in 10.0 mi SSE 9.2 mph - N/A   Mostly Cloudy
4:51 PM 50.0 °F - 37.9 °F 63% 30.48 in 10.0 mi SE 8.1 mph - N/A   Overcast
5:51 PM 50.0 °F - 39.0 °F 66% 30.48 in 10.0 mi SE 6.9 mph - N/A   Overcast
6:46 PM 51.8 °F - 39.2 °F 62% 30.47 in 10.0 mi SSE 8.1 mph - N/A   Overcast
6:51 PM 51.1 °F - 39.9 °F 66% 30.47 in 10.0 mi South 8.1 mph - N/A   Overcast
7:41 PM 51.8 °F - 41.0 °F 67% 30.46 in 10.0 mi SSE 6.9 mph - N/A   Overcast
7:51 PM 51.1 °F - 41.0 °F 68% 30.46 in 10.0 mi SSE 6.9 mph - N/A   Overcast
8:51 PM 51.1 °F - 42.1 °F 71% 30.45 in 10.0 mi Calm Calm - N/A   Overcast
9:51 PM 52.0 °F - 41.0 °F 66% 30.43 in 10.0 mi SSW 8.1 mph - N/A   Overcast
10:51 PM 51.1 °F - 41.0 °F 68% 30.43 in 10.0 mi WSW 5.8 mph - N/A   Overcast
11:51 PM 50.0 °F - 41.0 °F 71% 30.41 in 10.0 mi WSW 4.6 mph - N/A   Overcast